,,,PA_Meas_PMT16A,,PR_Meas_QMR101_102,,RH_Meas_QMH101,,SR_Meas_QMS101,,TA_Meas_QMH101,,GenWind,,GenWind,
date,time,status,PA,status,PR,status,RH,status,SR,status,TA,status,DirAvg,status,SpdAvg,
2010-09-11, 00:00:05,VALID,1001.46,VALID,0,VALID,92.6236,VALID,0,VALID,23.7012,VALID,35,VALID,0.0101562,
2010-09-11, 00:01:05,VALID,1001.45,VALID,0,VALID,92.6083,VALID,0,VALID,23.7012,VALID,35,VALID,0.0554687,
2010-09-11, 00:02:05,VALID,1001.46,VALID,0,VALID,92.6236,VALID,0,VALID,23.6817,VALID,35,VALID,0.382422,
2010-09-11, 00:03:05,VALID,1001.43,VALID,0,VALID,92.6617,VALID,0,VALID,23.6817,VALID,101,VALID,0.644141,
2010-09-11, 00:04:05,VALID,1001.42,VALID,0,VALID,92.7838,VALID,0,VALID,23.7207,VALID,114,VALID,0.703125,
2010-09-11, 00:05:05,VALID,1001.38,VALID,0,VALID,92.822,VALID,0,VALID,23.7207,VALID,116,VALID,0.897656,
2010-09-11, 00:06:05,VALID,1001.39,VALID,0,VALID,92.883,VALID,0,VALID,23.7402,VALID,116,VALID,0.839453,
2010-09-11, 00:07:05,VALID,1001.38,VALID,0,VALID,92.883,VALID,0,VALID,23.7402,VALID,116,VALID,0.754687,
2010-09-11, 00:08:05,VALID,1001.38,VALID,0,VALID,92.9059,VALID,0,VALID,23.7597,VALID,116,VALID,0.384375,
2010-09-11, 00:09:05,VALID,1001.38,VALID,0,VALID,92.9288,VALID,0,VALID,23.7402,VALID,116,VALID,0.0261719,
2010-09-11, 00:10:05,VALID,1001.38,VALID,0,VALID,92.9593,VALID,0,VALID,23.7597,VALID,116,VALID,0.334766,
2010-09-11, 00:11:05,VALID,1001.38,VALID,0,VALID,92.9745,VALID,0,VALID,23.7597,VALID,116,VALID,0.0128906,
2010-09-11, 00:12:04,VALID,1001.34,VALID,0,VALID,92.9822,VALID,0,VALID,23.7793,VALID,117,VALID,0,
2010-09-11, 00:13:04,VALID,1001.38,VALID,0,VALID,93.028,VALID,0,VALID,23.7988,VALID,116,VALID,0,
2010-09-11, 00:14:04,VALID,1001.38,VALID,0,VALID,93.0508,VALID,0,VALID,23.7988,VALID,116,VALID,0,
2010-09-11, 00:15:04,VALID,1001.35,VALID,0,VALID,93.0508,VALID,0,VALID,23.8183,VALID,116,VALID,0,
2010-09-11, 00:16:04,VALID,1001.37,VALID,0,VALID,93.0585,VALID,0,VALID,23.8183,VALID,123,VALID,0,
2010-09-11, 00:17:04,VALID,1001.32,VALID,0,VALID,93.0661,VALID,0,VALID,23.8378,VALID,124,VALID,0,
2010-09-11, 00:18:04,VALID,1001.32,VALID,0,VALID,93.0737,VALID,0,VALID,23.836,VALID,124,VALID,0,
2010-09-11, 00:19:04,VALID,1001.3,VALID,0,VALID,93.0585,VALID,0,VALID,23.8768,VALID,124,VALID,0,
2010-09-11, 00:20:04,VALID,1001.32,VALID,0,VALID,93.0508,VALID,0,VALID,23.8963,VALID,105,VALID,0,
2010-09-11, 00:21:04,VALID,1001.3,VALID,0,VALID,93.0661,VALID,0,VALID,23.914,VALID,316,VALID,0,
2010-09-11, 00:22:04,VALID,1001.3,VALID,0,VALID,93.0814,VALID,0,VALID,23.9549,VALID,316,VALID,0,
2010-09-11, 00:23:04,VALID,1001.29,VALID,0,VALID,93.0737,VALID,0,VALID,23.9549,VALID,316,VALID,0,
2010-09-11, 00:24:04,VALID,1001.29,VALID,0,VALID,93.0737,VALID,0,VALID,23.9336,VALID,316,VALID,0,
2010-09-11, 00:25:04,VALID,1001.28,VALID,0,VALID,93.0661,VALID,0,VALID,23.9549,VALID,316,VALID,0,
2010-09-11, 00:26:04,VALID,1001.31,VALID,0,VALID,93.0585,VALID,0,VALID,23.914,VALID,316,VALID,0,
2010-09-11, 00:27:04,VALID,1001.29,VALID,0,VALID,93.0356,VALID,0,VALID,23.914,VALID,316,VALID,0,
2010-09-11, 00:28:04,VALID,1001.29,VALID,0,VALID,93.0432,VALID,0,VALID,23.914,VALID,316,VALID,0,
2010-09-11, 00:29:04,VALID,1001.25,VALID,0,VALID,93.0356,VALID,0,VALID,23.9159,VALID,316,VALID,0,
2010-09-11, 00:30:04,VALID,1001.19,VALID,0,VALID,93.0051,VALID,0,VALID,23.9354,VALID,316,VALID,0,
2010-09-11, 00:31:04,VALID,1001.19,VALID,0,VALID,92.9822,VALID,0,VALID,23.8945,VALID,316,VALID,0,
2010-09-11, 00:32:04,VALID,1001.16,VALID,0,VALID,92.9822,VALID,0,VALID,23.8963,VALID,316,VALID,0,
2010-09-11, 00:33:04,VALID,1001.14,VALID,0,VALID,92.9364,VALID,0,VALID,23.8945,VALID,316,VALID,0,
2010-09-11, 00:34:04,VALID,1001.11,VALID,0,VALID,92.9135,VALID,0,VALID,23.836,VALID,271,VALID,1.63125,
2010-09-11, 00:35:04,VALID,1001.09,VALID,0,VALID,92.6465,VALID,0,VALID,23.8945,VALID,252,VALID,0.998828,
2010-09-11, 00:36:04,VALID,1001.11,VALID,0,VALID,92.2116,VALID,0,VALID,23.9726,VALID,260,VALID,1.09219,
2010-09-11, 00:37:04,VALID,1001.09,VALID,0,VALID,91.6775,VALID,0,VALID,24.0329,VALID,309,VALID,0.759766,
2010-09-11, 00:38:04,VALID,1001.05,VALID,0,VALID,91.2655,VALID,0,VALID,24.0311,VALID,290,VALID,0.24375,
2010-09-11, 00:39:04,VALID,1001.05,VALID,0,VALID,90.9756,VALID,0,VALID,24.0329,VALID,288,VALID,0.562891,
2010-09-11, 00:40:04,VALID,1001.01,VALID,0,VALID,90.9069,VALID,0,VALID,24.0525,VALID,288,VALID,0.191406,
2010-09-11, 00:41:04,VALID,1001.02,VALID,0,VALID,90.8764,VALID,0,VALID,24.0116,VALID,288,VALID,0.172266,
2010-09-11, 00:42:04,VALID,1001.01,VALID,0,VALID,90.9069,VALID,0,VALID,24.0116,VALID,312,VALID,0.435937,
2010-09-11, 00:43:04,VALID,1001.04,VALID,0,VALID,90.8611,VALID,0,VALID,24.0116,VALID,313,VALID,0.0132813,
2010-09-11, 00:44:04,VALID,1001.07,VALID,0,VALID,90.762,VALID,0,VALID,23.9921,VALID,313,VALID,0.444141,
2010-09-11, 00:45:04,VALID,1001.1,VALID,0,VALID,90.6551,VALID,0,VALID,23.9726,VALID,313,VALID,0.520703,
2010-09-11, 00:46:04,VALID,1001.12,VALID,0,VALID,90.6551,VALID,0,VALID,23.9939,VALID,313,VALID,0.341797,
2010-09-11, 00:47:04,VALID,1001.11,VALID,0,VALID,90.7314,VALID,0,VALID,23.9939,VALID,313,VALID,0.196484,
2010-09-11, 00:48:04,VALID,1001.12,VALID,0,VALID,90.8306,VALID,0,VALID,23.9939,VALID,313,VALID,0.00117188,
2010-09-11, 00:49:04,VALID,1001.16,VALID,0,VALID,90.7925,VALID,0,VALID,23.9744,VALID,313,VALID,0.282031,
2010-09-11, 00:50:04,VALID,1001.13,VALID,0,VALID,90.7391,VALID,0,VALID,23.9531,VALID,299,VALID,0.392578,
2010-09-11, 00:51:04,VALID,1001.13,VALID,0,VALID,90.7085,VALID,0,VALID,23.9939,VALID,252,VALID,0.312891,
2010-09-11, 00:52:04,VALID,1001.12,VALID,0,VALID,90.7085,VALID,0,VALID,23.9726,VALID,251,VALID,0.447656,
2010-09-11, 00:53:04,VALID,1001.09,VALID,0,VALID,90.5407,VALID,0,VALID,24.0134,VALID,226,VALID,0.63125,
2010-09-11, 00:54:04,VALID,1001.11,VALID,0,VALID,90.3728,VALID,0,VALID,23.9921,VALID,222,VALID,0.578125,
2010-09-11, 00:55:04,VALID,1001.07,VALID,0,VALID,90.2355,VALID,0.112286,VALID,24.0116,VALID,222,VALID,0.540234,
2010-09-11, 00:56:04,VALID,1001.08,VALID,0,VALID,90.1516,VALID,0,VALID,24.0329,VALID,222,VALID,0.255078,
2010-09-11, 00:57:04,VALID,1001.08,VALID,0,VALID,90.1363,VALID,0,VALID,24.0329,VALID,222,VALID,0.0621094,
2010-09-11, 00:58:04,VALID,1001.07,VALID,0,VALID,90.1516,VALID,0,VALID,24.0116,VALID,222,VALID,0,
2010-09-11, 00:59:04,VALID,1001.1,VALID,0,VALID,90.2431,VALID,0,VALID,23.9939,VALID,222,VALID,0.276172,
2010-09-11, 01:00:04,VALID,1001.08,VALID,0,VALID,90.1592,VALID,0,VALID,23.9939,VALID,222,VALID,0.561719,
2010-09-11, 01:01:04,VALID,1001.05,VALID,0,VALID,90.06,VALID,0,VALID,23.9939,VALID,158,VALID,0.645703,
2010-09-11, 01:02:04,VALID,1001.02,VALID,0,VALID,90.0143,VALID,0,VALID,23.9531,VALID,68,VALID,0.954687,
2010-09-11, 01:03:04,VALID,1000.99,VALID,0,VALID,90.1211,VALID,0,VALID,23.9744,VALID,68,VALID,1.21328,
2010-09-11, 01:04:04,VALID,1001,VALID,0,VALID,90.1974,VALID,0,VALID,23.9549,VALID,68,VALID,1.03516,
2010-09-11, 01:05:04,VALID,1000.98,VALID,0,VALID,90.1516,VALID,0,VALID,23.9336,VALID,66,VALID,1.02539,
2010-09-11, 01:06:04,VALID,1000.96,VALID,0,VALID,90.1287,VALID,0,VALID,23.9354,VALID,65,VALID,0.958984,
2010-09-11, 01:07:04,VALID,1000.96,VALID,0,VALID,90.1821,VALID,0,VALID,23.9549,VALID,65,VALID,0.939062,
2010-09-11, 01:08:04,VALID,1000.95,VALID,0,VALID,90.2584,VALID,0,VALID,23.9354,VALID,65,VALID,0.869141,
2010-09-11, 01:09:04,VALID,1000.93,VALID,0,VALID,90.5026,VALID,0,VALID,23.914,VALID,65,VALID,0.786328,
2010-09-11, 01:10:04,VALID,1000.94,VALID,0,VALID,90.7391,VALID,0,VALID,23.8963,VALID,76,VALID,0.758203,
2010-09-11, 01:11:04,VALID,1000.95,VALID,0,VALID,90.9527,VALID,0,VALID,23.875,VALID,78,VALID,0.830859,
2010-09-11, 01:12:04,VALID,1000.92,VALID,0,VALID,91.1358,VALID,0,VALID,23.836,VALID,86,VALID,0.960547,
2010-09-11, 01:13:04,VALID,1000.91,VALID,0,VALID,91.2884,VALID,0,VALID,23.8165,VALID,91,VALID,1.00977,
2010-09-11, 01:14:04,VALID,1000.89,VALID,0,VALID,91.4181,VALID,0,VALID,23.8183,VALID,104,VALID,0.978906,
2010-09-11, 01:15:04,VALID,1000.92,VALID,0,VALID,91.5326,VALID,0,VALID,23.7988,VALID,108,VALID,0.828516,
2010-09-11, 01:16:04,VALID,1000.92,VALID,0,VALID,91.6165,VALID,0,VALID,23.7579,VALID,109,VALID,0.722266,
2010-09-11, 01:17:04,VALID,1000.88,VALID,0,VALID,91.7233,VALID,0,VALID,23.7597,VALID,109,VALID,0.66875,
2010-09-11, 01:18:04,VALID,1000.88,VALID,0,VALID,91.8225,VALID,0,VALID,23.7597,VALID,109,VALID,0.794531,
2010-09-11, 01:19:04,VALID,1000.86,VALID,0,VALID,91.8911,VALID,0,VALID,23.7384,VALID,108,VALID,0.828906,
2010-09-11, 01:20:04,VALID,1000.86,VALID,0,VALID,91.9751,VALID,0,VALID,23.7402,VALID,108,VALID,1.00625,
2010-09-11, 01:21:04,VALID,1000.82,VALID,0,VALID,91.998,VALID,0,VALID,23.7402,VALID,108,VALID,0.977734,
2010-09-11, 01:22:04,VALID,1000.82,VALID,0,VALID,92.0285,VALID,0,VALID,23.7189,VALID,110,VALID,0.870703,
2010-09-11, 01:23:04,VALID,1000.81,VALID,0,VALID,91.998,VALID,0,VALID,23.7189,VALID,113,VALID,0.825781,
2010-09-11, 01:24:04,VALID,1000.83,VALID,0,VALID,91.9751,VALID,0,VALID,23.7189,VALID,113,VALID,0.694531,
2010-09-11, 01:25:04,VALID,1000.82,VALID,0,VALID,91.9522,VALID,0,VALID,23.7189,VALID,113,VALID,0.786719,
2010-09-11, 01:26:04,VALID,1000.82,VALID,0,VALID,91.9217,VALID,0,VALID,23.7597,VALID,120,VALID,0.65625,
2010-09-11, 01:27:04,VALID,1000.81,VALID,0,VALID,91.8988,VALID,0,VALID,23.7384,VALID,120,VALID,0.678906,
2010-09-11, 01:28:04,VALID,1000.82,VALID,0,VALID,91.8606,VALID,0,VALID,23.7384,VALID,120,VALID,0.644922,
2010-09-11, 01:29:04,VALID,1000.77,VALID,0,VALID,91.8759,VALID,0,VALID,23.7988,VALID,120,VALID,0.668359,
2010-09-11, 01:30:04,VALID,1000.78,VALID,0,VALID,91.8911,VALID,0,VALID,23.7793,VALID,133,VALID,0.648047,
2010-09-11, 01:31:04,VALID,1000.76,VALID,0,VALID,91.8911,VALID,0,VALID,23.7793,VALID,133,VALID,0.719141,
2010-09-11, 01:32:04,VALID,1000.77,VALID,0,VALID,91.914,VALID,0,VALID,23.7775,VALID,136,VALID,0.751953,
2010-09-11, 01:33:04,VALID,1000.75,VALID,0,VALID,91.914,VALID,0,VALID,23.7988,VALID,139,VALID,0.723828,
2010-09-11, 01:34:04,VALID,1000.76,VALID,0,VALID,91.8835,VALID,0,VALID,23.7775,VALID,142,VALID,0.925781,
2010-09-11, 01:35:04,VALID,1000.72,VALID,0,VALID,91.853,VALID,0,VALID,23.8183,VALID,132,VALID,1.36172,
2010-09-11, 01:36:04,VALID,1000.72,VALID,0,VALID,91.7157,VALID,0,VALID,23.7988,VALID,129,VALID,1.34844,
2010-09-11, 01:37:04,VALID,1000.73,VALID,0,VALID,91.647,VALID,0,VALID,23.8378,VALID,129,VALID,1.06992,
2010-09-11, 01:38:04,VALID,1000.76,VALID,0,VALID,91.4791,VALID,0,VALID,23.8378,VALID,134,VALID,0.779297,
2010-09-11, 01:39:04,VALID,1000.81,VALID,0,VALID,91.1968,VALID,0,VALID,23.8378,VALID,136,VALID,0.803125,
2010-09-11, 01:40:04,VALID,1000.8,VALID,0,VALID,90.8917,VALID,0,VALID,23.8555,VALID,188,VALID,0.821484,
2010-09-11, 01:41:04,VALID,1000.8,VALID,0,VALID,90.8993,VALID,0,VALID,23.9159,VALID,122,VALID,0.749219,
2010-09-11, 01:42:04,VALID,1000.84,VALID,0,VALID,90.9985,VALID,0,VALID,23.9354,VALID,110,VALID,0.582812,
2010-09-11, 01:43:04,VALID,1000.8,VALID,0,VALID,91.1282,VALID,0,VALID,23.9354,VALID,110,VALID,0.421094,
2010-09-11, 01:44:04,VALID,1000.82,VALID,0,VALID,91.235,VALID,0,VALID,23.9159,VALID,110,VALID,0.0667969,
2010-09-11, 01:45:04,VALID,1000.8,VALID,0,VALID,91.3266,VALID,0,VALID,23.8963,VALID,110,VALID,0.139844,
2010-09-11, 01:46:04,VALID,1000.79,VALID,0,VALID,91.3342,VALID,0,VALID,23.8768,VALID,151,VALID,0.353125,
2010-09-11, 01:47:04,VALID,1000.79,VALID,0,VALID,91.3189,VALID,0,VALID,23.8768,VALID,112,VALID,0.394922,
2010-09-11, 01:48:04,VALID,1000.8,VALID,0,VALID,91.2731,VALID,0,VALID,23.8768,VALID,107,VALID,0.130469,
2010-09-11, 01:49:04,VALID,1000.77,VALID,0,VALID,91.2197,VALID,0,VALID,23.8768,VALID,107,VALID,0,
2010-09-11, 01:50:04,VALID,1000.8,VALID,0,VALID,91.2274,VALID,0,VALID,23.8768,VALID,107,VALID,0.120703,
2010-09-11, 01:51:04,VALID,1000.75,VALID,0,VALID,91.2426,VALID,0,VALID,23.8768,VALID,107,VALID,0,
2010-09-11, 01:52:04,VALID,1000.76,VALID,0,VALID,91.2731,VALID,0,VALID,23.875,VALID,107,VALID,0,
2010-09-11, 01:53:04,VALID,1000.75,VALID,0,VALID,91.3266,VALID,0.112286,VALID,23.875,VALID,107,VALID,0.0015625,
2010-09-11, 01:54:04,VALID,1000.73,VALID,0,VALID,91.4181,VALID,0,VALID,23.8537,VALID,107,VALID,0.491016,
2010-09-11, 01:55:04,VALID,1000.71,VALID,0,VALID,91.441,VALID,0,VALID,23.8555,VALID,107,VALID,0.328125,
2010-09-11, 01:56:04,VALID,1000.68,VALID,0,VALID,91.3952,VALID,0,VALID,23.836,VALID,107,VALID,0.360156,
2010-09-11, 01:57:04,VALID,1000.67,VALID,0,VALID,91.4486,VALID,0.112286,VALID,23.8342,VALID,107,VALID,0.336719,
2010-09-11, 01:58:04,VALID,1000.63,VALID,0,VALID,91.4486,VALID,0.112286,VALID,23.836,VALID,107,VALID,0.450781,
2010-09-11, 01:59:04,VALID,1000.63,VALID,0,VALID,91.502,VALID,0.112286,VALID,23.836,VALID,102,VALID,0.479297,
2010-09-11, 02:00:04,VALID,1000.62,VALID,0,VALID,91.5707,VALID,0.112286,VALID,23.8147,VALID,102,VALID,0.252344,
2010-09-11, 02:01:04,VALID,1000.62,VALID,0,VALID,91.6317,VALID,0.112286,VALID,23.8147,VALID,102,VALID,0.232812,
2010-09-11, 02:02:04,VALID,1000.61,VALID,0,VALID,91.6851,VALID,0,VALID,23.8165,VALID,102,VALID,0.312891,
2010-09-11, 02:03:04,VALID,1000.6,VALID,0,VALID,91.7614,VALID,0.112286,VALID,23.797,VALID,91,VALID,0.450391,
2010-09-11, 02:04:04,VALID,1000.6,VALID,0,VALID,91.8148,VALID,0.112286,VALID,23.7757,VALID,88,VALID,0.184766,
2010-09-11, 02:05:04,VALID,1000.62,VALID,0,VALID,91.8606,VALID,0,VALID,23.7775,VALID,84,VALID,0.321094,
2010-09-11, 02:06:04,VALID,1000.6,VALID,0,VALID,91.8454,VALID,0,VALID,23.7579,VALID,72,VALID,0.460938,
2010-09-11, 02:07:04,VALID,1000.57,VALID,0,VALID,91.8911,VALID,0,VALID,23.7402,VALID,62,VALID,0.316797,
2010-09-11, 02:08:04,VALID,1000.58,VALID,0,VALID,91.9217,VALID,0,VALID,23.7189,VALID,62,VALID,0.0398437,
2010-09-11, 02:09:04,VALID,1000.55,VALID,0,VALID,91.9064,VALID,0,VALID,23.7012,VALID,62,VALID,0.428516,
2010-09-11, 02:10:04,VALID,1000.53,VALID,0,VALID,91.9064,VALID,0,VALID,23.7207,VALID,62,VALID,0.304297,
2010-09-11, 02:11:04,VALID,1000.5,VALID,0,VALID,91.9445,VALID,0,VALID,23.7207,VALID,62,VALID,0.268359,
2010-09-11, 02:12:04,VALID,1000.47,VALID,0,VALID,91.9369,VALID,0,VALID,23.7012,VALID,62,VALID,0.157422,
2010-09-11, 02:13:04,VALID,1000.48,VALID,0.5,VALID,91.9217,VALID,0,VALID,23.7012,VALID,62,VALID,0.288281,
2010-09-11, 02:14:04,VALID,1000.48,VALID,0,VALID,91.914,VALID,0,VALID,23.7012,VALID,350,VALID,0.582812,
2010-09-11, 02:15:04,VALID,1000.49,VALID,0,VALID,91.9293,VALID,0,VALID,23.7012,VALID,350,VALID,0.530078,
2010-09-11, 02:16:04,VALID,1000.46,VALID,0,VALID,91.9293,VALID,0,VALID,23.7012,VALID,350,VALID,0.385156,
2010-09-11, 02:17:04,VALID,1000.47,VALID,0,VALID,91.9293,VALID,0,VALID,23.7012,VALID,350,VALID,0.193359,
2010-09-11, 02:18:04,VALID,1000.47,VALID,0,VALID,91.9369,VALID,0,VALID,23.6817,VALID,350,VALID,0.0546875,
2010-09-11, 02:19:04,VALID,1000.47,VALID,0,VALID,92.0056,VALID,0,VALID,23.7012,VALID,350,VALID,0,
2010-09-11, 02:20:04,VALID,1000.45,VALID,0,VALID,92.0514,VALID,0,VALID,23.7012,VALID,350,VALID,0,
2010-09-11, 02:21:04,VALID,1000.43,VALID,0,VALID,92.0819,VALID,0,VALID,23.6799,VALID,350,VALID,0,
2010-09-11, 02:22:04,VALID,1000.43,VALID,0,VALID,92.1506,VALID,0,VALID,23.6817,VALID,350,VALID,0,
2010-09-11, 02:23:04,VALID,1000.41,VALID,0,VALID,92.1811,VALID,0,VALID,23.6817,VALID,350,VALID,0,
2010-09-11, 02:24:04,VALID,1000.38,VALID,0,VALID,92.2192,VALID,0,VALID,23.6604,VALID,350,VALID,0,
2010-09-11, 02:25:04,VALID,1000.38,VALID,0,VALID,92.2574,VALID,0,VALID,23.6817,VALID,350,VALID,0,
2010-09-11, 02:26:04,VALID,1000.35,VALID,0,VALID,92.2726,VALID,0,VALID,23.6622,VALID,350,VALID,0,
2010-09-11, 02:27:04,VALID,1000.35,VALID,0,VALID,92.2803,VALID,0,VALID,23.6622,VALID,350,VALID,0,
2010-09-11, 02:28:04,VALID,1000.33,VALID,0,VALID,92.265,VALID,0,VALID,23.6622,VALID,350,VALID,0,
2010-09-11, 02:29:04,VALID,1000.31,VALID,0,VALID,92.2421,VALID,0,VALID,23.6427,VALID,350,VALID,0,
2010-09-11, 02:30:04,VALID,1000.31,VALID,0,VALID,92.2803,VALID,0,VALID,23.6427,VALID,350,VALID,0,
2010-09-11, 02:31:04,VALID,1000.3,VALID,0,VALID,92.3489,VALID,0,VALID,23.6427,VALID,350,VALID,0,
2010-09-11, 02:32:04,VALID,1000.29,VALID,0,VALID,92.4176,VALID,0,VALID,23.6427,VALID,84,VALID,0,
2010-09-11, 02:33:04,VALID,1000.3,VALID,0,VALID,92.4786,VALID,0,VALID,23.6427,VALID,121,VALID,0.0304688,
2010-09-11, 02:34:04,VALID,1000.29,VALID,0,VALID,92.5015,VALID,0,VALID,23.6019,VALID,121,VALID,0,
2010-09-11, 02:35:04,VALID,1000.32,VALID,0,VALID,92.5168,VALID,0,VALID,23.6427,VALID,121,VALID,0,
2010-09-11, 02:36:04,VALID,1000.34,VALID,0,VALID,92.4939,VALID,0,VALID,23.6427,VALID,121,VALID,0,
2010-09-11, 02:37:04,VALID,1000.34,VALID,0,VALID,92.4786,VALID,0,VALID,23.6427,VALID,121,VALID,0,
2010-09-11, 02:38:04,VALID,1000.37,VALID,0,VALID,92.471,VALID,0,VALID,23.6427,VALID,121,VALID,0.859766,
2010-09-11, 02:39:04,VALID,1000.37,VALID,0,VALID,92.4634,VALID,0,VALID,23.6427,VALID,121,VALID,0.871875,
2010-09-11, 02:40:04,VALID,1000.43,VALID,0,VALID,92.4786,VALID,0,VALID,23.6427,VALID,121,VALID,0.884766,
2010-09-11, 02:41:04,VALID,1000.46,VALID,0,VALID,92.4863,VALID,0,VALID,23.6427,VALID,121,VALID,0.771094,
2010-09-11, 02:42:04,VALID,1000.48,VALID,0,VALID,92.5168,VALID,0,VALID,23.6427,VALID,121,VALID,0.957812,
2010-09-11, 02:43:04,VALID,1000.47,VALID,0,VALID,92.5626,VALID,0,VALID,23.6622,VALID,119,VALID,0.90625,
2010-09-11, 02:44:04,VALID,1000.52,VALID,0,VALID,92.616,VALID,0,VALID,23.6622,VALID,118,VALID,0.853125,
2010-09-11, 02:45:04,VALID,1000.53,VALID,0,VALID,92.677,VALID,0,VALID,23.6622,VALID,113,VALID,0.672656,
2010-09-11, 02:46:04,VALID,1000.58,VALID,0,VALID,92.7457,VALID,0,VALID,23.6817,VALID,110,VALID,0.896875,
2010-09-11, 02:47:04,VALID,1000.63,VALID,0,VALID,92.7914,VALID,0,VALID,23.6622,VALID,107,VALID,0.558984,
2010-09-11, 02:48:04,VALID,1000.66,VALID,0,VALID,92.8525,VALID,0,VALID,23.6817,VALID,101,VALID,0.976953,
2010-09-11, 02:49:04,VALID,1000.71,VALID,0,VALID,92.8677,VALID,0,VALID,23.6817,VALID,91,VALID,1.05859,
2010-09-11, 02:50:04,VALID,1000.69,VALID,0,VALID,92.8754,VALID,0,VALID,23.6427,VALID,87,VALID,0.999609,
2010-09-11, 02:51:04,VALID,1000.71,VALID,0,VALID,92.8906,VALID,0,VALID,23.6214,VALID,83,VALID,1.27969,
2010-09-11, 02:52:04,VALID,1000.71,VALID,0,VALID,92.883,VALID,0,VALID,23.6232,VALID,83,VALID,1.19062,
2010-09-11, 02:53:04,VALID,1000.73,VALID,0,VALID,92.8372,VALID,0,VALID,23.6036,VALID,94,VALID,0.875781,
2010-09-11, 02:54:04,VALID,1000.72,VALID,0,VALID,92.8372,VALID,0,VALID,23.6232,VALID,94,VALID,0.710938,
2010-09-11, 02:55:04,VALID,1000.71,VALID,0,VALID,92.8143,VALID,0,VALID,23.6036,VALID,94,VALID,0.386328,
2010-09-11, 02:56:04,VALID,1000.74,VALID,0,VALID,92.8067,VALID,0,VALID,23.6036,VALID,95,VALID,0.165625,
2010-09-11, 02:57:04,VALID,1000.67,VALID,0,VALID,92.8448,VALID,0,VALID,23.5823,VALID,94,VALID,0.476953,
2010-09-11, 02:58:04,VALID,1000.68,VALID,0,VALID,92.8601,VALID,0,VALID,23.6036,VALID,94,VALID,0.41875,
2010-09-11, 02:59:04,VALID,1000.69,VALID,0,VALID,92.8677,VALID,0,VALID,23.6232,VALID,94,VALID,0.150781,
2010-09-11, 03:00:04,VALID,1000.68,VALID,0,VALID,92.883,VALID,0,VALID,23.6036,VALID,94,VALID,0,
2010-09-11, 03:01:04,VALID,1000.65,VALID,0,VALID,92.8677,VALID,0,VALID,23.5823,VALID,94,VALID,0.127344,
2010-09-11, 03:02:04,VALID,1000.66,VALID,0,VALID,92.9059,VALID,0,VALID,23.6232,VALID,80,VALID,0.396484,
2010-09-11, 03:03:04,VALID,1000.65,VALID,0,VALID,92.9135,VALID,0,VALID,23.5823,VALID,318,VALID,0.484766,
2010-09-11, 03:04:04,VALID,1000.64,VALID,0,VALID,92.9135,VALID,0,VALID,23.6036,VALID,318,VALID,0.457422,
2010-09-11, 03:05:04,VALID,1000.65,VALID,0,VALID,92.9059,VALID,0,VALID,23.6036,VALID,318,VALID,0.428516,
2010-09-11, 03:06:04,VALID,1000.62,VALID,0,VALID,92.8906,VALID,0,VALID,23.6036,VALID,318,VALID,0.0511719,
2010-09-11, 03:07:04,VALID,1000.61,VALID,0,VALID,92.8983,VALID,0,VALID,23.5823,VALID,318,VALID,0.0121094,
2010-09-11, 03:08:04,VALID,1000.62,VALID,0,VALID,92.8983,VALID,0,VALID,23.5841,VALID,318,VALID,0,
2010-09-11, 03:09:04,VALID,1000.57,VALID,0,VALID,92.8983,VALID,0,VALID,23.5646,VALID,318,VALID,0,
2010-09-11, 03:10:04,VALID,1000.55,VALID,0,VALID,92.8906,VALID,0,VALID,23.5646,VALID,318,VALID,0,
2010-09-11, 03:11:04,VALID,1000.53,VALID,0,VALID,92.8983,VALID,0,VALID,23.5841,VALID,318,VALID,0,
2010-09-11, 03:12:04,VALID,1000.53,VALID,0,VALID,92.9135,VALID,0,VALID,23.5646,VALID,318,VALID,0,
2010-09-11, 03:13:04,VALID,1000.52,VALID,0,VALID,92.883,VALID,0,VALID,23.5646,VALID,318,VALID,0,
2010-09-11, 03:14:04,VALID,1000.53,VALID,0,VALID,92.9135,VALID,0,VALID,23.5646,VALID,318,VALID,0,
2010-09-11, 03:15:04,VALID,1000.52,VALID,0,VALID,92.9135,VALID,0,VALID,23.5451,VALID,318,VALID,0,
2010-09-11, 03:16:04,VALID,1000.51,VALID,0,VALID,92.9288,VALID,0,VALID,23.5646,VALID,318,VALID,0.0742188,
2010-09-11, 03:17:04,VALID,1000.55,VALID,0,VALID,92.9517,VALID,0,VALID,23.5646,VALID,318,VALID,0.5,
2010-09-11, 03:18:04,VALID,1000.53,VALID,0,VALID,92.9974,VALID,0,VALID,23.5628,VALID,318,VALID,0.496875,
2010-09-11, 03:19:04,VALID,1000.55,VALID,0,VALID,93.0051,VALID,0,VALID,23.5841,VALID,318,VALID,0.660937,
2010-09-11, 03:20:04,VALID,1000.57,VALID,0,VALID,93.0127,VALID,0,VALID,23.6054,VALID,318,VALID,0.852344,
2010-09-11, 03:21:04,VALID,1000.56,VALID,0,VALID,93.0356,VALID,0,VALID,23.6036,VALID,135,VALID,0.900781,
2010-09-11, 03:22:04,VALID,1000.57,VALID,0,VALID,93.0432,VALID,0,VALID,23.6036,VALID,134,VALID,0.798437,
2010-09-11, 03:23:04,VALID,1000.58,VALID,0,VALID,93.0585,VALID,0,VALID,23.6232,VALID,134,VALID,0.634766,
2010-09-11, 03:24:04,VALID,1000.59,VALID,0,VALID,93.0814,VALID,0,VALID,23.6036,VALID,134,VALID,0.557422,
2010-09-11, 03:25:04,VALID,1000.62,VALID,0,VALID,93.089,VALID,0,VALID,23.6036,VALID,134,VALID,0.825,
2010-09-11, 03:26:04,VALID,1000.62,VALID,0,VALID,93.089,VALID,0,VALID,23.5841,VALID,135,VALID,0.517578,
2010-09-11, 03:27:04,VALID,1000.63,VALID,0,VALID,93.089,VALID,0,VALID,23.5823,VALID,137,VALID,0.558984,
2010-09-11, 03:28:04,VALID,1000.63,VALID,0,VALID,93.0814,VALID,0,VALID,23.6036,VALID,137,VALID,0.111328,
2010-09-11, 03:29:04,VALID,1000.63,VALID,0,VALID,93.089,VALID,0,VALID,23.6232,VALID,137,VALID,0,
2010-09-11, 03:30:04,VALID,1000.62,VALID,0,VALID,93.1043,VALID,0,VALID,23.5823,VALID,137,VALID,0,
2010-09-11, 03:31:04,VALID,1000.6,VALID,0,VALID,93.0737,VALID,0,VALID,23.6019,VALID,137,VALID,0,
2010-09-11, 03:32:04,VALID,1000.57,VALID,0,VALID,93.0814,VALID,0,VALID,23.6036,VALID,137,VALID,0.0613281,
2010-09-11, 03:33:04,VALID,1000.57,VALID,0,VALID,93.1119,VALID,0,VALID,23.6036,VALID,137,VALID,0.00117188,
2010-09-11, 03:34:04,VALID,1000.58,VALID,0,VALID,93.1043,VALID,0,VALID,23.6036,VALID,137,VALID,0,
2010-09-11, 03:35:04,VALID,1000.58,VALID,0,VALID,93.1119,VALID,0,VALID,23.6232,VALID,137,VALID,0.178125,
2010-09-11, 03:36:04,VALID,1000.56,VALID,0,VALID,93.0966,VALID,0,VALID,23.5841,VALID,137,VALID,0.125781,
2010-09-11, 03:37:04,VALID,1000.54,VALID,0,VALID,93.1043,VALID,0,VALID,23.5841,VALID,137,VALID,0,
2010-09-11, 03:38:04,VALID,1000.52,VALID,0,VALID,93.1195,VALID,0,VALID,23.5841,VALID,137,VALID,0.0078125,
2010-09-11, 03:39:04,VALID,1000.53,VALID,0,VALID,93.1195,VALID,0,VALID,23.5841,VALID,137,VALID,0.45,
2010-09-11, 03:40:04,VALID,1000.51,VALID,0,VALID,93.1119,VALID,0,VALID,23.5841,VALID,138,VALID,0.487109,
2010-09-11, 03:41:04,VALID,1000.5,VALID,0,VALID,93.1271,VALID,0,VALID,23.6036,VALID,167,VALID,0.406641,
2010-09-11, 03:42:04,VALID,1000.47,VALID,0,VALID,93.15,VALID,0,VALID,23.6232,VALID,167,VALID,0.418359,
2010-09-11, 03:43:04,VALID,1000.46,VALID,0,VALID,93.1653,VALID,0,VALID,23.6232,VALID,167,VALID,0.389453,
2010-09-11, 03:44:04,VALID,1000.47,VALID,0,VALID,93.1805,VALID,0,VALID,23.6427,VALID,167,VALID,0.238672,
2010-09-11, 03:45:04,VALID,1000.49,VALID,0,VALID,93.1882,VALID,0,VALID,23.6622,VALID,167,VALID,0.26875,
2010-09-11, 03:46:04,VALID,1000.48,VALID,0,VALID,93.2111,VALID,0,VALID,23.6622,VALID,151,VALID,0.671484,
2010-09-11, 03:47:04,VALID,1000.47,VALID,0,VALID,93.2416,VALID,0,VALID,23.6622,VALID,149,VALID,0.573047,